Home   Weather   Málaga   Past weeks

Flag for Spain Past Weather in Málaga, Spain — Yesterday and Last 2 Weeks

Now
61 °F

Mostly cloudy.


Feels Like: 61 °F
Forecast: 59 / 64 °F
Wind: 13 mph from Southeast

Location: Malaga / Aeropuerto

Current Time: Dec 3, 2016 at 6:56:16 pm

Latest Report: Dec 3, 2016 at 6:30 pm


Visibility: 6 mi

Pressure: 29.83 "Hg

Humidity: 88%

Dew Point: 57 °F

Location of MálagaLocation

Past Weather in Málaga — Graph

°F

Málaga Temperature Yesterday

Maximum temperature yesterday: 63 °F (at 11:00 am)
Minimum temperature yesterday: 59 °F (at 12:00 am)
Average temperature yesterday: 60 °F

High & Low Weather Summary for the Past Weeks

 TemperatureHumidityPressure
High75 °F (Nov 19, 2:00 pm)100% (Nov 21, 11:30 pm)30.27 "Hg (Nov 21, 11:30 pm)
Low43 °F (Nov 24, 4:00 am)31% (Nov 19, 2:30 pm)29.59 "Hg (Nov 22, 2:00 pm)
Average58 °F81%29.90 "Hg
* Reported Nov 18 5:00 pm — Dec 3 5:30 pm, Málaga, Weather by CustomWeather, © 2016

Note: Actual official high and low records may vary slightly from our data, if they occured in-between our weather recording intervals... More about our weather records

Advertising

Málaga Weather History for the Previous 24 Hours

Scroll right to see more
 ConditionsComfort  
Time TempWeatherWind HumidityBarometerVisibility
5:30 pm
Sat, Dec 3
61 °FMore clouds than sun.13 mph88%29.83 "Hg6 mi
5:00 pm61 °FMore clouds than sun.10 mph94%29.83 "Hg6 mi
4:30 pm61 °FMore clouds than sun.10 mph88%29.83 "Hg6 mi
4:00 pm61 °FMore clouds than sun.12 mph88%29.83 "Hg6 mi
3:30 pm61 °FMore clouds than sun.13 mph88%29.83 "Hg6 mi
3:00 pm61 °FMore clouds than sun.12 mph88%29.86 "Hg6 mi
2:30 pm61 °FMore clouds than sun.13 mph88%29.86 "Hg4 mi
2:00 pm61 °FMore clouds than sun.14 mph94%29.86 "Hg4 mi
1:30 pm61 °FRain. Mostly cloudy.13 mph94%29.89 "Hg2 mi
1:00 pm61 °FMostly cloudy.15 mph94%29.89 "Hg5 mi
12:30 pm61 °FMostly cloudy.13 mph94%29.89 "Hg5 mi
12:00 pm61 °FMostly cloudy.13 mph88%29.92 "Hg5 mi
11:30 am59 °FMostly cloudy.10 mph94%29.92 "Hg5 mi
11:00 am59 °FRain. Fog.3 mph94%29.92 "Hg2 mi
10:30 am59 °FFog.2 mph88%29.92 "Hg3 mi
10:00 am57 °FMore clouds than sun.No wind94%29.92 "HgN/A
9:30 am57 °FMore clouds than sun.No wind94%29.92 "HgN/A
9:00 am57 °FMore clouds than sun.1 mph94%29.92 "HgN/A
8:30 am57 °FMore clouds than sun.No wind94%29.92 "HgN/A
8:00 am55 °FPartly cloudy.No wind100%29.92 "Hg5 mi
7:30 am55 °FPartly cloudy.2 mph100%29.92 "Hg5 mi
7:00 am55 °FPartly cloudy.2 mph100%29.92 "Hg4 mi
6:30 am57 °FPartly cloudy.1 mph94%29.92 "Hg4 mi
6:00 am55 °FLight rain. Partly cloudy.1 mph100%29.92 "Hg4 mi
5:30 am57 °FPartly cloudy.2 mph94%29.92 "Hg4 mi
5:00 am57 °FPartly cloudy.1 mph94%29.92 "HgN/A
4:30 am57 °FLight rain. Partly cloudy.No wind94%29.92 "HgN/A
4:00 am57 °FLight rain. Partly cloudy.No wind94%29.95 "HgN/A
3:00 am57 °FPartly cloudy.No wind94%29.95 "HgN/A
2:30 am57 °FPassing clouds.1 mph94%29.95 "HgN/A
2:00 am57 °FLight rain. Passing clouds.No wind94%29.98 "HgN/A
1:30 am57 °FLight rain. Passing clouds.No wind94%29.98 "HgN/A
1:00 am57 °FLight rain. Passing clouds.1 mph94%29.98 "HgN/A
12:30 am59 °FPassing clouds.2 mph88%29.98 "HgN/A
12:00 am59 °FPassing clouds.2 mph88%30.01 "HgN/A
11:30 pm
Fri, Dec 2
59 °FPassing clouds.1 mph88%30.01 "HgN/A
11:00 pm59 °FPassing clouds.1 mph88%30.01 "HgN/A
10:30 pm59 °FPassing clouds.2 mph88%30.01 "HgN/A
10:00 pm59 °FPassing clouds.2 mph88%30.01 "HgN/A
9:30 pm59 °FPassing clouds.3 mph88%30.01 "HgN/A
9:00 pm59 °FPassing clouds.3 mph88%30.04 "HgN/A
8:30 pm59 °FPassing clouds.3 mph88%30.04 "HgN/A
8:00 pm59 °FPassing clouds.2 mph88%30.04 "HgN/A
7:30 pm59 °FPassing clouds.2 mph88%30.04 "HgN/A
7:00 pm59 °FPassing clouds.3 mph88%30.04 "HgN/A
6:00 pm59 °FPassing clouds.5 mph88%30.04 "HgN/A
Weather by CustomWeather, © 2016

See weather overviewHow to use our weather pages